Volver al catálogo

STARLINK-33788

ActivoComunicacionesVLEO
NORAD 63589·PAYLOAD·🇺🇸 United States

Lanzado Apr 14, 2025 desde Cape Canaveral Space Force Station

Loading…

Próximos Pases (próximas 24 horas)

TLE

ActualizadoSource: CelesTrak SupGP

Época: Sep 15, 2026, 03:14 UTC

1 63589C 25076W   26258.13520833  .00044370  00000+0  16070-2 0  2580
2 63589  43.0010 332.0421 0001433 259.9299   1.9117 15.27557535    17

Sigue STARLINK-33788 en tiempo real con AllMySat

Download on the App Store